Sarasota, FL

10:21 AM EDT on June 27, 2017 (GMT -0400)
Sarasota-bradenton

Weather History for KSRQ - March, 2012

Change the Weather History Date:

Friday, March 9, 2012

  Actual Average Record
Temperature  
Mean Temperature 73 °F 66 °F  
Max Temperature 81 °F 75 °F 89 °F (1918)
Min Temperature 65 °F 56 °F 33 °F (1996)
Degree Days  
Heating Degree Days 0 2  
Month to date heating degree days 7 23  
Since 1 July heating degree days 205 441  
Cooling Degree Days 8 3  
Month to date cooling degree days 57 27  
Year to date cooling degree days 236 131  
Growing Degree Days 23 (Base 50)    
Moisture  
Dew Point 66 °F    
Average Humidity 82    
Maximum Humidity 93    
Minimum Humidity 62    
Precipitation  
Precipitation T in 0.14 in 1.95 in (1978)
Month to date precipitation T 1.21  
Year to date precipitation 1.73 6.40  
Sea Level Pressure  
Sea Level Pressure 30.15 in    
Wind  
Wind Speed 6 mph (SSE)    
Max Wind Speed 13 mph    
Max Gust Speed 21 mph    
Visibility 9 miles    
Events      
T = Trace of Precipitation, MM = Missing Value Source: NWS Daily Summary

Daily Weather History Graph

Daily Weather History Graph

Search for Another Location

Airport or City:

Trip Planner

Search our weather history database for the weather conditions in past years. The results will help you decide how hot, cold, wet, or windy it might be!

Date:

Astronomy

Mar. 09, 2012 Rise Set
Actual Time 6:45 AM EST 6:35 PM EST
Civil Twilight 6:22 AM EST 6:59 PM EST
Nautical Twilight 5:55 AM EST 7:26 PM EST
Astronomical Twilight 5:28 AM EST 7:53 PM EST
Moon 8:17 PM EST (3/9) 7:16 AM EST (3/9)
Length of Visible Light 12h 36m
Length of Day
11h 50m
Full, 98% of the Moon is Illuminated
Mar 9
Full
Mar 14
Last Quarter
Mar 22
New
Mar 30
First Quarter
Apr 6
Full

Hourly Weather History & Observations

Time (EST) Temp. Heat Index Dew Point Humidity Pressure Visibility Wind Dir Wind Speed Gust Speed Precip Events Conditions
12:53 AM 70.0 °F - 64.0 °F 81% 30.16 in 10.0 mi East 6.9 mph - N/A   Overcast
1:53 AM 69.1 °F - 64.0 °F 84% 30.14 in 10.0 mi East 5.8 mph - N/A   Partly Cloudy
2:53 AM 68.0 °F - 64.0 °F 87% 30.12 in 10.0 mi East 5.8 mph - N/A   Mostly Cloudy
3:53 AM 66.9 °F - 64.0 °F 90% 30.12 in 10.0 mi East 4.6 mph - N/A   Clear
4:53 AM 66.0 °F - 64.0 °F 93% 30.13 in 10.0 mi East 3.5 mph - N/A   Clear
5:53 AM 66.0 °F - 64.0 °F 93% 30.14 in 10.0 mi East 3.5 mph - N/A   Clear
6:53 AM 66.0 °F - 63.0 °F 90% 30.17 in 9.0 mi Calm Calm - N/A   Clear
7:19 AM 66.2 °F - 64.4 °F 94% 30.18 in 9.0 mi Calm Calm - N/A   Mostly Cloudy
7:53 AM 68.0 °F - 64.9 °F 90% 30.19 in 10.0 mi ENE 5.8 mph - N/A   Overcast
8:10 AM 69.8 °F - 64.4 °F 83% 30.20 in 10.0 mi ENE 5.8 mph - N/A   Scattered Clouds
8:53 AM 73.0 °F - 66.0 °F 79% 30.20 in 10.0 mi East 5.8 mph - N/A   Scattered Clouds
9:53 AM 78.1 °F - 66.0 °F 66% 30.20 in 10.0 mi South 11.5 mph - N/A   Mostly Cloudy
10:53 AM 77.0 °F - 66.0 °F 69% 30.20 in 10.0 mi SW 8.1 mph - N/A   Overcast
11:53 AM 77.0 °F - 66.9 °F 71% 30.18 in 10.0 mi SSW 5.8 mph - 0.00 in   Overcast
12:53 PM 80.1 °F 82.1 °F 66.0 °F 62% 30.16 in 10.0 mi SSW 10.4 mph - 0.00 in   Partly Cloudy
1:53 PM 80.1 °F 82.3 °F 66.9 °F 64% 30.12 in 10.0 mi SSW 10.4 mph - N/A   Clear
2:53 PM 79.0 °F - 66.9 °F 66% 30.11 in 10.0 mi WSW 9.2 mph - N/A   Clear
3:53 PM 77.0 °F - 66.9 °F 71% 30.11 in 10.0 mi West 10.4 mph - N/A   Clear
4:53 PM 75.9 °F - 68.0 °F 76% 30.10 in 10.0 mi West 10.4 mph - N/A   Clear
5:53 PM 75.0 °F - 66.9 °F 76% 30.12 in 10.0 mi WNW 10.4 mph - N/A   Clear
6:53 PM 73.0 °F - 66.9 °F 81% 30.12 in 10.0 mi WNW 9.2 mph - N/A   Clear
7:53 PM 71.1 °F - 66.9 °F 87% 30.14 in 10.0 mi NW 4.6 mph - N/A   Clear
8:53 PM 71.1 °F - 66.9 °F 87% 30.15 in 10.0 mi NNW 6.9 mph - N/A   Clear
9:53 PM 70.0 °F - 66.9 °F 90% 30.15 in 10.0 mi Calm Calm - N/A   Clear
10:53 PM 68.0 °F - 66.0 °F 93% 30.17 in 6.0 mi Calm Calm - N/A   Clear
11:01 PM 66.2 °F - 64.4 °F 94% 30.17 in 10.0 mi Calm Calm - N/A   Clear
11:53 PM 68.0 °F - 66.0 °F 93% 30.17 in 1.5 mi Calm Calm - N/A   Mostly Cloudy
11:55 PM 68.0 °F - 66.2 °F 94% 30.17 in 3.0 mi Calm Calm - N/A   Mostly Cloudy